Location: Limerick
(52.6650°N, 8.6230°W)
Time: 03:32:58
(UTC+01:00)

ISS - Pass Details

Date: 28 March 2017
Orbit: 401 x 409 km, 51.6° (Epoch: 01 May)

Event Time Altitude Azimuth Distance (km) Brightness Sun altitude
Rises 21:18:11 0° 208° (SSW) 2,311 0.1 -11.9°
Reaches altitude 10° 21:20:43 10° 187° (S) 1,458 -1.2 -12.3°
Enters shadow 21:22:42 17° 150° (SSE) 1,111 -2.1 -12.6°
